Location: Bothell
(47.7630°N, 122.2040°W)
Time: 03:16:54
(UTC-07:00)

Amateur Radio Satellites - All Passes

Search period start: 29 May 2015 02:46
Search period end: 30 May 2015 02:46
Location: Bothell, 47.7630°N, 122.2040°W

Satellite Date Start Highest point End Downlink Frequencies (MHz)
Time Altitude Azimuth
SWISSCUBE 29 May 02:47:34 02:51:43 29° 266° (W) 02:55:51 437.505
O/OREOS (USA 219) 29 May 02:56:59 02:59:02 13° 261° (W) 03:00:51 437.305
PHONESAT 2.4 29 May 03:00:42 03:02:41 15° 160° (SSE) 03:04:42 2401.200-2431.200
STARS 29 May 03:03:03 03:07:23 54° 71° (ENE) 03:11:46 437.465
Gurwin Techsat 1B 29 May 03:03:37 03:08:24 33° 95° (E) 03:13:13 435.225
PCSat 29 May 03:06:01 03:10:30 25° 323° (NW) 03:14:55 145.827
BEESAT 2 29 May 03:08:30 03:12:26 43° 239° (WSW) 03:16:17 435.950
AIST 2 29 May 03:12:59 03:17:14 70° 50° (NE) 03:21:25 435.215
Oscar 19 29 May 03:32:36 03:37:33 46° 292° (WNW) 03:42:26 437.125/150
Cosmos 2499 29 May 03:36:35 03:43:04 39° 271° (W) 03:49:32 435.465 / 435.565
VERMONT LUNAR 29 May 03:40:14 03:42:49 22° 180° (S) 03:45:24 437.305
KKS-1 29 May 03:41:12 03:45:29 42° 262° (W) 03:49:47 437.445
MOZHAYETS 4 29 May 03:51:09 03:54:51 25° 65° (ENE) 03:58:38
ITAMSAT 1 29 May 03:51:32 03:56:48 86° 103° (ESE) 04:02:03 435.822/435.867
JAS-2 29 May 03:55:33 03:59:06 19° 89° (E) 04:02:54 435.910
BEESAT 3 29 May 03:55:50 03:57:57 14° 249° (WSW) 03:59:54 437.485
ISS 29 May 03:57:38 04:00:53 62° 17° (NNE) 04:04:08 145.825
SO-50 29 May 04:07:52 04:12:35 64° 312° (NW) 04:17:29 436.795
HORYU 2 29 May 04:22:15 04:26:10 30° 95° (E) 04:30:06 437.375
PHONESAT 2.4 29 May 04:37:17 04:40:10 24° 177° (S) 04:43:02 2401.200-2431.200
STARS 29 May 04:41:04 04:44:12 18° 270° (W) 04:47:14 437.465
Gurwin Techsat 1B 29 May 04:43:32 04:48:28 39° 294° (WNW) 04:53:21 435.225
AIST 2 29 May 04:52:45 04:55:21 16° 248° (WSW) 04:57:47 435.215
AO-7 29 May 04:53:48 05:01:50 49° 100° (E) 05:09:53 29.400- 29.500
PCSat 29 May 04:54:45 04:55:58 11° 348° (NNW) 04:57:07 145.827
VERMONT LUNAR 29 May 05:17:24 05:19:25 15° 196° (SSW) 05:21:24 437.305
MOZHAYETS 4 29 May 05:27:35 05:31:55 41° 263° (W) 05:36:15
ITAMSAT 1 29 May 05:32:22 05:35:42 17° 303° (WNW) 05:38:52 435.822/435.867
ISS 29 May 05:34:14 05:37:10 30° 216° (SW) 05:40:05 145.825
CUBESAT XI-V 29 May 05:36:31 05:40:18 26° 65° (ENE) 05:44:12 437.345
JAS-2 29 May 05:39:42 05:44:49 61° 289° (WNW) 05:50:03 435.910
Cosmos 2491 29 May 05:43:11 05:51:18 39° 66° (ENE) 05:59:27 435.465 / 435.565
SO-50 29 May 05:50:41 05:54:06 18° 335° (NNW) 05:57:30 436.795
PRISM 29 May 05:57:17 06:00:07 19° 63° (ENE) 06:03:05 437.425
HORYU 2 29 May 05:58:52 06:02:49 32° 293° (WNW) 06:06:43 437.375
M-CUBED/EXP-1 PRIME 29 May 06:08:57 06:11:34 18° 59° (ENE) 06:14:10 437.505
AUBIESAT-1 29 May 06:14:45 06:17:20 17° 59° (ENE) 06:19:53 437.475
PHONESAT 2.4 29 May 06:15:07 06:17:42 19° 193° (SSW) 06:20:16 2401.200-2431.200
STRAND 1 29 May 06:15:59 06:20:24 31° 64° (ENE) 06:24:54 437.568
CUTE-I 29 May 06:23:05 06:26:38 18° 88° (E) 06:30:23 437.470
AIST 1 29 May 06:24:52 06:26:30 12° 61° (ENE) 06:28:21
YUBILEINY 29 May 06:39:12 06:46:17 30° 82° (E) 06:53:36 435.215
PCSat 29 May 06:40:18 06:41:59 11° 15° (NNE) 06:43:44 145.827
Cubesat XI-IV 29 May 06:43:50 06:48:20 27° 93° (E) 06:52:55 437.490
AO-7 29 May 06:46:46 06:54:41 48° 300° (WNW) 07:02:31 29.400- 29.500
CUBESAT XI-V 29 May 07:13:15 07:17:36 40° 263° (W) 07:21:58 437.345
JAS-2 29 May 07:28:37 07:29:02 10° 308° (NW) 07:29:11 435.910
PRISM 29 May 07:31:20 07:35:17 47° 260° (W) 07:39:17 437.425
SO-50 29 May 07:35:10 07:36:35 11° 359° (N) 07:38:00 436.795
Cosmos 2491 29 May 07:40:01 07:48:36 56° 269° (W) 07:57:04 435.465 / 435.565
BRITE-PL 29 May 07:40:16 07:41:56 12° 80° (E) 07:43:56 437.365/2234.400
M-CUBED/EXP-1 PRIME 29 May 07:42:13 07:46:12 50° 254° (WSW) 07:49:53 437.505
AUBIESAT-1 29 May 07:47:58 07:51:54 50° 254° (WSW) 07:55:32 437.475
STRAND 1 29 May 07:54:43 07:59:31 40° 263° (W) 08:04:19 437.568
AIST 1 29 May 08:00:28 08:04:53 83° 264° (W) 08:09:18
CUTE-I 29 May 08:01:59 08:07:20 71° 288° (WNW) 08:12:42 437.470
Cosmos 2504 29 May 08:17:04 08:17:59 10° 73° (ENE) 08:19:28 435.465 / 435.565
PCSat 29 May 08:22:38 08:27:19 29° 39° (NE) 08:32:01 145.827
Cubesat XI-IV 29 May 08:23:32 08:28:42 48° 292° (WNW) 08:33:50 437.490
HO-68 29 May 08:31:33 08:36:08 19° 86° (E) 08:41:01 435.675
YUBILEINY 29 May 08:33:47 08:42:31 69° 283° (WNW) 08:51:15 435.215
RS-15 29 May 08:41:13 08:51:16 47° 113° (ESE) 09:01:43 29.354- 29.394
AO-7 29 May 08:41:16 08:45:36 15° 323° (NW) 08:49:38 29.400- 29.500
GOMX 1 29 May 09:05:27 09:10:30 39° 95° (E) 09:15:17 467.674
UNISAT 6 29 May 09:13:10 09:15:04 13° 58° (ENE) 09:17:09 437.425
CINEMA 3 29 May 09:13:34 09:16:08 15° 86° (E) 09:18:50 145.822/145.860
BRITE-PL 29 May 09:15:55 09:21:37 73° 101° (E) 09:27:02 437.365/2234.400
SO-50 29 May 09:15:57 09:19:08 17° 23° (NNE) 09:22:21 436.795
CANX-2 29 May 09:22:07 09:25:58 34° 96° (E) 09:29:50 2200.000
CUTE 1.7 + AOD 2 29 May 09:25:16 09:29:06 33° 96° (E) 09:32:57 437.475
Cosmos 2491 29 May 09:40:49 09:43:36 11° 290° (WNW) 09:45:45 435.465 / 435.565
SEEDS 29 May 09:43:36 09:47:36 42° 98° (E) 09:51:36 437.485
Oscar 11 29 May 09:43:51 09:46:21 15° 88° (E) 09:49:02 145.826/435.025
CUTE-I 29 May 09:44:01 09:46:36 13° 306° (NW) 09:48:57 437.470
CUBEBUG 2 29 May 09:47:22 09:50:00 16° 87° (E) 09:52:43 437.445
COMPASS 1 29 May 09:52:34 09:56:33 43° 98° (E) 10:00:31 437.405
DOVE 4 29 May 09:53:26 09:58:36 70° 101° (ESE) 10:03:25 437.250
ANTELSAT 29 May 09:54:13 09:58:09 28° 66° (ENE) 10:02:06 437.575/2403.000
Cosmos 2504 29 May 10:02:01 10:09:56 56° 92° (E) 10:17:23 435.465 / 435.565
AAUSAT CUBESAT 2 29 May 10:02:23 10:06:24 47° 99° (E) 10:10:25 437.432
PCSat 29 May 10:05:47 10:11:11 64° 241° (WSW) 10:16:32 145.827
DELFI C3 29 May 10:12:24 10:15:27 21° 92° (E) 10:18:34 145.870
QB50P1 29 May 10:17:09 10:20:24 22° 64° (ENE) 10:23:45 145.935-145.965
HO-68 29 May 10:17:47 10:25:00 88° 107° (ESE) 10:32:10 435.675
POLYITAN 1 29 May 10:20:29 10:23:53 24° 65° (ENE) 10:27:23 437.675
TIGRISAT 29 May 10:25:03 10:29:35 51° 71° (ENE) 10:34:04 435.000
UWE-3 29 May 10:28:10 10:32:06 31° 95° (E) 10:35:56 435.000/436.395/437.385
FUNcube-1 29 May 10:31:07 10:34:45 26° 93° (E) 10:38:21 145.935
YUBILEINY 29 May 10:35:43 10:41:26 18° 309° (NW) 10:46:47 435.215
GOMX 1 29 May 10:43:42 10:48:31 33° 295° (WNW) 10:53:04 467.674
HUMSAT D 29 May 10:45:24 10:48:12 18° 90° (E) 10:51:06 437.325/437.525
AISAT 29 May 10:45:41 10:45:43 10° 84° (E) 10:46:01 437.250
UNISAT 6 29 May 10:46:31 10:51:13 84° 75° (ENE) 10:55:51 437.425
NANOSAT C BR1 29 May 10:46:35 10:50:34 40° 69° (ENE) 10:54:37 145.865
CINEMA 3 29 May 10:49:14 10:54:00 70° 286° (WNW) 10:58:29 145.822/145.860
RS-15 29 May 10:52:32 11:03:24 64° 318° (NW) 11:14:40 29.354- 29.394
BRITE-PL 29 May 10:55:19 10:59:34 22° 300° (WNW) 11:03:33 437.365/2234.400
SO-50 29 May 10:55:55 11:00:48 52° 45° (NE) 11:05:38 436.795
QB50P2 29 May 10:56:27 11:00:37 51° 71° (ENE) 11:04:50 145.880/145.840
CANX-2 29 May 10:58:16 11:01:48 26° 293° (WNW) 11:05:16 2200.000
CUTE 1.7 + AOD 2 29 May 11:01:22 11:04:56 26° 294° (WNW) 11:08:26 437.475
50 SAT 29 May 11:04:26 11:06:41 15° 89° (E) 11:09:03 437.505
DUCHIFAT 1 29 May 11:07:37 11:11:51 64° 73° (ENE) 11:16:07 145.980
POPSAT HIP 1 29 May 11:07:55 11:12:11 66° 73° (ENE) 11:16:29 437.405
UKube-1 29 May 11:08:49 11:12:38 29° 95° (E) 11:16:27 .
ZACube-1 29 May 11:12:26 11:16:47 71° 102° (ESE) 11:21:00 437.345
GONETS M04 29 May 11:15:46 11:16:31 10° 69° (ENE) 11:17:58
BUGSAT 1 29 May 11:18:29 11:22:35 58° 72° (ENE) 11:26:47 437.445
Oscar 11 29 May 11:18:44 11:23:00 59° 287° (WNW) 11:27:13 145.826/435.025
SEEDS 29 May 11:19:58 11:23:10 21° 295° (WNW) 11:26:17 437.485
DX 1 29 May 11:21:23 11:25:34 41° 98° (E) 11:29:45 434.975-435.025
CUBEBUG 2 29 May 11:22:47 11:27:12 60° 287° (WNW) 11:31:27 437.445
COMPASS 1 29 May 11:28:50 11:32:00 21° 295° (WNW) 11:35:03 437.405
ANTELSAT 29 May 11:30:26 11:34:49 38° 263° (W) 11:39:07 437.575/2403.000
DOVE 4 29 May 11:32:10 11:35:47 19° 300° (WNW) 11:39:10 437.250
CUBEBUG 1 29 May 11:37:09 11:40:11 18° 90° (E) 11:43:21 437.445
AAUSAT CUBESAT 2 29 May 11:38:44 11:41:44 19° 296° (WNW) 11:44:38 437.432
VELOX 1 29 May 11:46:05 11:50:19 39° 98° (E) 11:54:31 145.980
DELFI C3 29 May 11:46:59 11:50:43 37° 290° (WNW) 11:54:26 145.870
QB50P1 29 May 11:51:55 11:56:01 44° 262° (W) 12:00:10 145.935-145.965
POLYITAN 1 29 May 11:55:31 11:59:36 40° 262° (W) 12:03:42 437.675
Cosmos 2504 29 May 11:56:20 12:03:41 35° 293° (WNW) 12:10:31 435.465 / 435.565
DANDE 29 May 11:58:29 12:03:59 22° 80° (E) 12:10:12 436.750
ESTCUBE 1 29 May 11:59:43 12:03:52 34° 96° (E) 12:08:01 437.505/2401.250
TIGRISAT 29 May 12:03:06 12:06:38 20° 269° (W) 12:10:02 435.000
UWE-3 29 May 12:04:45 12:08:36 29° 294° (WNW) 12:12:17 435.000/436.395/437.385
HO-68 29 May 12:06:30 12:11:59 24° 307° (NW) 12:17:18 435.675
SPROUT 29 May 12:07:09 12:07:59 11° 85° (E) 12:09:04 437.525
FUNcube-1 29 May 12:07:14 12:11:10 34° 292° (WNW) 12:14:58 145.935
CUSAT 1 29 May 12:09:47 12:16:25 33° 86° (E) 12:23:36 437.405
AISAT 29 May 12:18:35 12:23:07 85° 104° (ESE) 12:27:37 437.250
TISAT 1 29 May 12:20:10 12:20:28 10° 85° (E) 12:21:02 437.305
HUMSAT D 29 May 12:20:15 12:24:17 47° 289° (WNW) 12:28:14 437.325/437.525
NANOSAT C BR1 29 May 12:23:08 12:26:34 23° 268° (W) 12:29:58 145.865
UNISAT 6 29 May 12:26:35 12:28:40 12° 274° (W) 12:30:31 437.425
CINEMA 3 29 May 12:29:05 12:30:19 11° 305° (NW) 12:31:18 145.822/145.860
QB50P2 29 May 12:33:51 12:36:51 18° 270° (W) 12:39:45 145.880/145.840
SO-50 29 May 12:36:54 12:41:08 28° 244° (WSW) 12:45:16 436.795
50 SAT 29 May 12:37:58 12:41:44 49° 288° (WNW) 12:45:27 437.505
UKube-1 29 May 12:44:52 12:48:47 32° 293° (WNW) 12:52:38 .
DUCHIFAT 1 29 May 12:45:41 12:48:09 14° 272° (W) 12:50:28 145.980
POPSAT HIP 1 29 May 12:46:10 12:48:34 14° 272° (W) 12:50:48 437.405
ZACube-1 29 May 12:50:10 12:52:38 15° 300° (WNW) 12:54:55 437.345
Gurwin Techsat 1B 29 May 12:51:48 12:54:05 13° 54° (NE) 12:56:35 435.225
BUGSAT 1 29 May 12:55:55 12:58:30 15° 271° (W) 13:00:58 437.445
DX 1 29 May 12:58:03 13:01:37 24° 296° (WNW) 13:05:07 434.975-435.025
GONETS M04 29 May 13:03:00 13:11:24 52° 90° (E) 13:19:54
RS-15 29 May 13:08:31 13:18:27 35° 349° (N) 13:28:44 29.354- 29.394
CUBEBUG 1 29 May 13:12:33 13:16:55 53° 288° (WNW) 13:21:14 437.445
Oscar 19 29 May 13:13:32 13:18:35 54° 70° (ENE) 13:23:40 437.125/150
VELOX 1 29 May 13:22:58 13:26:42 26° 295° (WNW) 13:30:23 145.980
ITAMSAT 1 29 May 13:34:40 13:39:00 29° 63° (ENE) 13:43:27 435.822/435.867
ESTCUBE 1 29 May 13:36:42 13:40:40 30° 294° (WNW) 13:44:35 437.505/2401.250
DANDE 29 May 13:38:27 13:46:07 86° 100° (E) 13:54:48 436.750
SPROUT 29 May 13:40:25 13:44:48 87° 289° (WNW) 13:49:08 437.525
CUSAT 1 29 May 13:50:49 13:58:37 69° 286° (WNW) 14:06:57 437.405
TISAT 1 29 May 13:52:40 13:56:59 88° 287° (WNW) 14:01:15 437.305
AISAT 29 May 13:56:45 13:59:07 14° 301° (WNW) 14:01:18 437.250
AO-7 29 May 14:06:35 14:12:45 25° 47° (NE) 14:19:10 29.400- 29.500
JAS-2 29 May 14:12:51 14:16:17 16° 57° (ENE) 14:19:44 435.910
Cosmos 2499 29 May 14:24:21 14:31:00 32° 86° (E) 14:37:27 435.465 / 435.565
Gurwin Techsat 1B 29 May 14:27:58 14:33:14 72° 73° (ENE) 14:38:34 435.225
ITUPSAT 1 29 May 14:28:53 14:33:20 37° 97° (E) 14:37:47 437.325
BEESAT 29 May 14:34:39 14:39:12 42° 98° (E) 14:43:45 436.000
SWISSCUBE 29 May 14:43:33 14:48:15 55° 101° (E) 14:52:58 437.505
Oscar 19 29 May 14:54:08 14:58:18 23° 269° (W) 15:02:23 437.125/150
GONETS M04 29 May 15:00:15 15:08:33 42° 293° (WNW) 15:16:48
ITAMSAT 1 29 May 15:13:23 15:18:20 45° 261° (W) 15:23:20 435.822/435.867
SPROUT 29 May 15:18:33 15:20:15 12° 302° (WNW) 15:21:45 437.525
HORYU 2 29 May 15:23:34 15:27:48 43° 69° (ENE) 15:32:04 437.375
DANDE 29 May 15:23:52 15:30:34 28° 303° (WNW) 15:37:34 436.750
RS-15 29 May 15:24:07 15:34:36 40° 23° (NNE) 15:45:36 29.354- 29.394
KKS-1 29 May 15:28:58 15:32:51 29° 94° (E) 15:36:45 437.445
TISAT 1 29 May 15:30:28 15:32:08 12° 302° (WNW) 15:33:37 437.305
O/OREOS (USA 219) 29 May 15:31:16 15:35:34 46° 109° (ESE) 15:39:54 437.305
CUSAT 1 29 May 15:37:17 15:43:03 20° 309° (NW) 15:48:36 437.405
JAS-2 29 May 15:54:23 16:00:49 82° 74° (ENE) 16:06:32 435.910
AO-7 29 May 15:56:15 16:04:33 83° 69° (ENE) 16:12:56 29.400- 29.500
ITUPSAT 1 29 May 16:06:56 16:11:09 30° 295° (WNW) 16:15:17 437.325
Gurwin Techsat 1B 29 May 16:10:13 16:13:51 18° 272° (W) 16:17:19 435.225
BEESAT 29 May 16:12:52 16:16:52 27° 296° (WNW) 16:20:49 436.000
Cosmos 2499 29 May 16:16:03 16:23:53 58° 285° (WNW) 16:31:09 435.465 / 435.565
SWISSCUBE 29 May 16:22:08 16:25:47 22° 298° (WNW) 16:29:19 437.505
STARS 29 May 16:25:37 16:30:02 67° 101° (E) 16:34:26 437.465
Cubesat XI-IV 29 May 16:33:37 16:35:09 11° 52° (NE) 16:36:55 437.490
YUBILEINY 29 May 16:44:00 16:49:34 19° 52° (NE) 16:55:29 435.215
HORYU 2 29 May 17:01:05 17:04:40 22° 268° (W) 17:08:10 437.375
KKS-1 29 May 17:05:27 17:09:32 34° 293° (WNW) 17:13:33 437.445
BEESAT 2 29 May 17:06:40 17:08:57 15° 112° (ESE) 17:11:24 435.950
GONETS M04 29 May 17:07:18 17:08:44 10° 321° (NW) 17:09:38
O/OREOS (USA 219) 29 May 17:11:30 17:15:14 24° 309° (NW) 17:18:55 437.305
MOZHAYETS 4 29 May 17:19:02 17:23:15 36° 96° (E) 17:27:29
RS-15 29 May 17:37:14 17:48:51 85° 51° (NE) 18:00:58 29.354- 29.394
JAS-2 29 May 17:42:23 17:46:35 18° 272° (W) 17:50:18 435.910
CUTE-I 29 May 17:47:53 17:52:49 41° 67° (ENE) 17:57:49 437.470
BEESAT 3 29 May 17:49:42 17:53:36 45° 121° (ESE) 17:57:34 437.485
AO-7 29 May 17:51:48 17:58:26 25° 271° (W) 18:04:49 29.400- 29.500
STARS 29 May 18:03:12 18:06:02 17° 300° (WNW) 18:08:44 437.465
Cubesat XI-IV 29 May 18:09:05 18:14:18 61° 71° (ENE) 18:19:35 437.490
Cosmos 2499 29 May 18:15:37 18:18:59 13° 310° (NW) 18:21:51 435.465 / 435.565
YUBILEINY 29 May 18:39:39 18:48:23 73° 78° (ENE) 18:57:04 435.215
BEESAT 2 29 May 18:42:27 18:46:34 71° 309° (NW) 18:50:44 435.950
GOMX 1 29 May 18:42:40 18:44:09 11° 53° (NE) 18:45:55 467.674
Cosmos 2491 29 May 18:49:05 18:56:53 39° 86° (E) 19:04:52 435.465 / 435.565
AIST 2 29 May 18:52:01 18:56:07 48° 121° (ESE) 19:00:16 435.215
BRITE-PL 29 May 18:53:08 18:56:51 20° 59° (ENE) 19:00:51 437.365/2234.400
MOZHAYETS 4 29 May 18:56:27 19:00:24 29° 294° (WNW) 19:04:17
HO-68 29 May 19:04:19 19:09:35 23° 52° (NE) 19:15:02 435.675
CUBESAT XI-V 29 May 19:06:10 19:10:35 39° 97° (E) 19:15:01 437.345
PRISM 29 May 19:10:52 19:13:43 18° 91° (E) 19:16:41 437.425
DOVE 4 29 May 19:26:18 19:29:35 17° 59° (ENE) 19:33:03 437.250
BEESAT 3 29 May 19:28:11 19:31:45 27° 321° (NW) 19:35:19 437.485
CUTE-I 29 May 19:28:17 19:33:01 32° 266° (W) 19:37:45 437.470
RS-15 29 May 19:50:26 20:00:20 33° 253° (WSW) 20:10:11 29.354- 29.394
Cosmos 2504 29 May 19:50:39 19:56:05 23° 60° (ENE) 20:01:41 435.465 / 435.565
Cubesat XI-IV 29 May 19:50:50 19:54:54 21° 270° (W) 19:58:50 437.490
STRAND 1 29 May 20:01:16 20:06:19 53° 100° (E) 20:11:22 437.568
GOMX 1 29 May 20:16:02 20:21:13 58° 72° (ENE) 20:26:38 467.674
CINEMA 3 29 May 20:17:44 20:21:38 24° 63° (ENE) 20:25:38 145.822/145.860
CANX-2 29 May 20:18:14 20:22:10 38° 70° (ENE) 20:26:08 2200.000
CUTE 1.7 + AOD 2 29 May 20:21:18 20:25:14 37° 69° (ENE) 20:29:10 437.475
BEESAT 2 29 May 20:22:47 20:25:25 16° 331° (NNW) 20:27:59 435.950
BRITE-PL 29 May 20:29:26 20:34:43 78° 258° (WSW) 20:40:23 437.365/2234.400
AIST 2 29 May 20:31:09 20:34:53 28° 321° (NW) 20:38:38 435.215
AIST 1 29 May 20:33:23 20:37:28 47° 94° (E) 20:41:37
YUBILEINY 29 May 20:37:24 20:44:30 28° 279° (W) 20:51:22 435.215
ZACube-1 29 May 20:38:10 20:40:00 13° 59° (ENE) 20:42:00 437.345
SEEDS 29 May 20:38:46 20:42:48 46° 71° (ENE) 20:46:52 437.485
Oscar 11 29 May 20:41:55 20:45:00 20° 63° (ENE) 20:48:11 145.826/435.025
CUBESAT XI-V 29 May 20:43:53 20:47:53 28° 294° (WNW) 20:51:50 437.345
Cosmos 2491 29 May 20:44:53 20:53:31 56° 287° (WNW) 21:02:12 435.465 / 435.565
PRISM 29 May 20:45:26 20:49:27 47° 290° (WNW) 20:53:28 437.425
COMPASS 1 29 May 20:46:55 20:50:54 46° 71° (ENE) 20:54:56 437.405
CUBEBUG 2 29 May 20:48:19 20:52:00 23° 64° (ENE) 20:55:45 437.445
HO-68 29 May 20:49:20 20:56:33 90° 247° (WSW) 21:03:47 435.675
M-CUBED/EXP-1 PRIME 29 May 20:54:42 20:57:59 63° 107° (ESE) 21:01:17 437.505
AAUSAT CUBESAT 2 29 May 20:56:16 21:00:17 50° 72° (ENE) 21:04:20 437.432
AUBIESAT-1 29 May 20:59:47 21:03:04 63° 107° (ESE) 21:06:23 437.475
DOVE 4 29 May 21:01:26 21:06:40 85° 255° (WSW) 21:12:04 437.250
DELFI C3 29 May 21:03:15 21:06:18 22° 65° (ENE) 21:09:26 145.870
UWE-3 29 May 21:28:03 21:32:27 41° 70° (ENE) 21:36:49 435.000/436.395/437.385
FUNcube-1 29 May 21:29:44 21:33:51 34° 68° (ENE) 21:37:57 145.935
HUMSAT D 29 May 21:40:23 21:43:37 22° 65° (ENE) 21:46:57 437.325/437.525
STRAND 1 29 May 21:41:04 21:45:15 25° 298° (WNW) 21:49:20 437.568
Cosmos 2504 29 May 21:43:13 21:50:26 78° 263° (W) 21:57:37 435.465 / 435.565
AISAT 29 May 21:45:15 21:47:52 16° 60° (ENE) 21:50:38 437.250
50 SAT 29 May 21:52:38 21:55:02 16° 63° (ENE) 21:57:33 437.505
CINEMA 3 29 May 21:53:34 21:58:31 55° 261° (W) 22:03:27 145.822/145.860
CANX-2 29 May 21:54:48 21:58:15 23° 268° (W) 22:01:37 2200.000
GOMX 1 29 May 21:55:32 21:59:46 23° 271° (W) 22:04:00 467.674
CUTE 1.7 + AOD 2 29 May 21:57:48 22:01:16 23° 267° (W) 22:04:42 437.475
UKube-1 29 May 22:06:46 22:10:47 38° 68° (ENE) 22:14:51 .
ZACube-1 29 May 22:11:07 22:15:43 85° 76° (ENE) 22:20:17 437.345
BRITE-PL 29 May 22:12:07 22:14:21 12° 279° (W) 22:16:20 437.365/2234.400
AIST 1 29 May 22:12:21 22:15:27 19° 294° (WNW) 22:18:28
SEEDS 29 May 22:15:50 22:18:54 19° 270° (W) 22:21:50 437.485
Oscar 11 29 May 22:16:39 22:20:53 50° 261° (W) 22:25:07 145.826/435.025
ISS 29 May 22:16:46 22:18:16 13° 136° (SE) 22:19:51 145.825
DX 1 29 May 22:20:03 22:24:19 56° 71° (ENE) 22:28:38 434.975-435.025
CUBEBUG 2 29 May 22:23:45 22:28:25 50° 261° (W) 22:33:02 437.445
COMPASS 1 29 May 22:23:51 22:26:52 19° 270° (W) 22:29:47 437.405
M-CUBED/EXP-1 PRIME 29 May 22:31:28 22:32:28 11° 305° (NW) 22:33:20 437.505
AAUSAT CUBESAT 2 29 May 22:33:23 22:36:13 17° 270° (W) 22:38:56 437.432
DANDE 29 May 22:35:39 22:41:30 23° 53° (NE) 22:46:44 436.750
AUBIESAT-1 29 May 22:36:26 22:37:30 11° 304° (NW) 22:38:25 437.475
CUBEBUG 1 29 May 22:36:33 22:40:01 24° 64° (ENE) 22:43:35 437.445
UNISAT 6 29 May 22:37:00 22:39:01 13° 87° (E) 22:41:13 437.425
DELFI C3 29 May 22:37:26 22:41:13 38° 263° (W) 22:45:00 145.870
HO-68 29 May 22:40:18 22:45:22 19° 273° (W) 22:50:08 435.675
DOVE 4 29 May 22:42:44 22:45:20 13° 277° (W) 22:47:40 437.250
CUSAT 1 29 May 22:45:14 22:51:16 28° 58° (ENE) 22:56:21 437.405
VELOX 1 29 May 22:46:47 22:51:06 53° 71° (ENE) 22:55:29 145.980
Cosmos 2491 29 May 22:48:25 22:53:02 14° 314° (NW) 22:57:13 435.465 / 435.565
ESTCUBE 1 29 May 23:02:32 23:06:50 47° 70° (ENE) 23:11:10 437.505/2401.250
SPROUT 29 May 23:04:05 23:06:22 15° 60° (ENE) 23:08:49 437.525
UWE-3 29 May 23:05:12 23:09:08 25° 268° (W) 23:12:57 435.000/436.395/437.385
FUNcube-1 29 May 23:06:08 23:10:12 30° 266° (W) 23:14:10 145.935
GONETS M04 29 May 23:08:55 23:16:29 32° 62° (ENE) 23:24:10
TISAT 1 29 May 23:14:45 23:16:50 14° 60° (ENE) 23:19:06 437.305
HUMSAT D 29 May 23:14:59 23:19:08 44° 262° (W) 23:23:16 437.325/437.525
ANTELSAT 29 May 23:19:01 23:23:01 34° 96° (E) 23:26:57 437.575/2403.000
AISAT 29 May 23:19:29 23:23:57 72° 258° (WSW) 23:28:28 437.250
50 SAT 29 May 23:25:28 23:29:23 55° 259° (W) 23:33:18 437.505
QB50P1 29 May 23:33:58 23:37:24 23° 93° (E) 23:40:52 145.935-145.965
POLYITAN 1 29 May 23:37:44 23:41:19 26° 93° (E) 23:44:55 437.675
Cosmos 2504 29 May 23:38:56 23:42:39 14° 283° (WNW) 23:45:57 435.465 / 435.565
UKube-1 29 May 23:43:29 23:47:04 24° 267° (W) 23:50:35 .
BEESAT 2 29 May 23:44:56 23:45:16 10° 18° (NNE) 23:45:42 435.950
TIGRISAT 29 May 23:50:03 23:54:27 69° 101° (ESE) 23:58:43 435.000
ZACube-1 29 May 23:50:51 23:52:46 12° 275° (W) 23:54:25 437.345
ISS 29 May 23:50:59 23:54:12 69° 154° (SSE) 23:57:28 145.825
DX 1 29 May 23:58:01 00:00:58 17° 270° (W) 00:03:47 434.975-435.025
O/OREOS (USA 219) 29 May 23:58:54 00:02:29 23° 50° (NE) 00:06:06 437.305
NANOSAT C BR1 30 May 00:03:36 00:07:44 45° 99° (E) 00:11:50 145.865
BEESAT 30 May 00:10:37 00:11:59 11° 55° (NE) 00:13:34 436.000
Cosmos 2499 30 May 00:11:48 00:14:31 13° 50° (NE) 00:17:38 435.465 / 435.565
CUBEBUG 1 30 May 00:12:01 00:16:10 41° 262° (W) 00:20:22 437.445
UNISAT 6 30 May 00:12:01 00:16:25 70° 286° (WNW) 00:20:41 437.425
QB50P2 30 May 00:14:05 00:18:21 61° 101° (E) 00:22:34 145.880/145.840
DANDE 30 May 00:18:16 00:26:13 89° 89° (E) 00:32:22 436.750
SWISSCUBE 30 May 00:18:28 00:20:53 14° 58° (ENE) 00:23:29 437.505
DUCHIFAT 1 30 May 00:24:38 00:28:56 74° 102° (ESE) 00:33:10 145.980
VELOX 1 30 May 00:24:53 00:28:02 18° 270° (W) 00:31:05 145.980
POPSAT HIP 1 30 May 00:25:29 00:29:48 78° 102° (ESE) 00:34:04 437.405
CUSAT 1 30 May 00:27:38 00:34:45 63° 265° (W) 00:40:11 437.405
BEESAT 3 30 May 00:27:57 00:30:42 17° 31° (NNE) 00:33:29 437.485
BUGSAT 1 30 May 00:32:37 00:36:53 64° 101° (E) 00:41:06 437.445
SPROUT 30 May 00:37:37 00:41:57 75° 258° (WSW) 00:46:19 437.525
ESTCUBE 1 30 May 00:40:32 00:43:59 21° 269° (W) 00:47:20 437.505/2401.250
TISAT 1 30 May 00:47:49 00:52:05 77° 257° (WSW) 00:56:23 437.305
PCSat 30 May 00:50:26 00:55:45 59° 119° (ESE) 01:01:07 145.827
ANTELSAT 30 May 00:55:59 00:59:43 27° 294° (WNW) 01:03:20 437.575/2403.000
GONETS M04 30 May 01:05:27 01:14:12 69° 266° (W) 01:22:49
VERMONT LUNAR 30 May 01:09:24 01:10:42 12° 159° (SSE) 01:12:02 437.305
QB50P1 30 May 01:09:24 01:13:25 38° 291° (WNW) 01:17:22 145.935-145.965
POLYITAN 1 30 May 01:13:23 01:17:19 35° 292° (WNW) 01:21:10 437.675
BEESAT 2 30 May 01:20:55 01:24:38 31° 41° (NE) 01:28:20 435.950
Oscar 19 30 May 01:23:11 01:25:47 14° 86° (E) 01:28:38 437.125/150
ISS 30 May 01:27:38 01:30:46 43° 352° (N) 01:33:55 145.825
TIGRISAT 30 May 01:28:05 01:30:42 15° 300° (WNW) 01:33:10 435.000
AIST 2 30 May 01:32:41 01:35:43 19° 32° (NNE) 01:38:47 435.215
O/OREOS (USA 219) 30 May 01:37:51 01:42:11 49° 250° (WSW) 01:46:30 437.305
ITUPSAT 1 30 May 01:38:53 01:43:35 62° 72° (ENE) 01:48:19 437.325
NANOSAT C BR1 30 May 01:40:03 01:43:19 21° 296° (WNW) 01:46:29 145.865
BEESAT 30 May 01:44:19 01:49:03 71° 73° (ENE) 01:53:50 436.000
QB50P2 30 May 01:51:01 01:53:50 17° 298° (WNW) 01:56:30 145.880/145.840
STARS 30 May 01:52:19 01:54:10 13° 58° (ENE) 01:56:12 437.465
SWISSCUBE 30 May 01:53:22 01:58:08 89° 256° (WSW) 02:02:55 437.505
DUCHIFAT 1 30 May 02:01:54 02:04:14 14° 300° (WNW) 02:06:25 145.980
Cosmos 2499 30 May 02:02:34 02:09:34 61° 76° (ENE) 02:16:40 435.465 / 435.565
POPSAT HIP 1 30 May 02:02:53 02:05:08 14° 300° (WNW) 02:07:14 437.405
DANDE 30 May 02:03:01 02:08:11 19° 282° (WNW) 02:12:24 436.750
BEESAT 3 30 May 02:05:12 02:09:19 84° 50° (NE) 02:13:22 437.485
BUGSAT 1 30 May 02:09:12 02:11:55 16° 299° (WNW) 02:14:29 437.445
CUSAT 1 30 May 02:13:47 02:15:39 11° 288° (WNW) 02:17:02 437.405
PHONESAT 2.4 30 May 02:18:47 02:20:21 13° 158° (SSE) 02:21:59 2401.200-2431.200
KKS-1 30 May 02:30:11 02:34:22 40° 69° (ENE) 02:38:36 437.445
PCSat 30 May 02:34:45 02:39:33 30° 319° (NW) 02:44:19 145.827
